This is the latest recevied weather packets stored in our database for station/object HA9OZD-17. If no packets are shown the sender has not sent any weather packets the latest 10 day(s).
| Time | Temp. | Humidity | Pressure | Rain* | Wind** | Luminosity | Snow |
|---|---|---|---|---|---|---|---|
| 1777902065 | 30° C | 12% | 895 hPa | - | - | - | - |
| 1777898464 | 32.22° C | 10% | 896 hPa | - | - | - | - |
| 1777894862 | 25° C | 17% | 896 hPa | - | - | - | - |
| 1777891261 | 17.22° C | 28% | 897 hPa | - | - | - | - |
| 1777887660 | 16.11° C | 30% | 897 hPa | - | - | - | - |
| 1777884059 | 15° C | 32% | 897 hPa | - | - | - | - |
| 1777880458 | 13.89° C | 34% | 897 hPa | - | - | - | - |
| 1777876857 | 13.33° C | 35% | 897 hPa | - | - | - | - |
| 1777873255 | 13.33° C | 35% | 896 hPa | - | - | - | - |
| 1777869654 | 12.78° C | 36% | 896 hPa | - | - | - | - |
| 1777866053 | 12.22° C | 38% | 896 hPa | - | - | - | - |
| 1777862452 | 12.22° C | 38% | 896 hPa | - | - | - | - |
| 1777858867 | 12.78° C | 37% | 896 hPa | - | - | - | - |
| 1777855266 | 13.33° C | 36% | 896 hPa | - | - | - | - |
| 1777851665 | 13.33° C | 35% | 896 hPa | - | - | - | - |
| 1777848064 | 13.89° C | 34% | 896 hPa | - | - | - | - |
| 1777844462 | 14.44° C | 33% | 897 hPa | - | - | - | - |
| 1777840861 | 15° C | 32% | 897 hPa | - | - | - | - |
| 1777837260 | 16.67° C | 29% | 897 hPa | - | - | - | - |
| 1777833659 | 18.33° C | 26% | 896 hPa | - | - | - | - |
| 1777830057 | 22.78° C | 20% | 896 hPa | - | - | - | - |
| 1777826456 | 25° C | 17% | 896 hPa | - | - | - | - |
| 1777822855 | 25.56° C | 16% | 897 hPa | - | - | - | - |
| 1777819254 | 26.67° C | 15% | 897 hPa | - | - | - | - |
| 1777815653 | 29.44° C | 12% | 897 hPa | - | - | - | - |
* Rain since midnight (hover to see other rain measurements)
** Current wind speed in m/s (hover to see current wind gust speed)